Whitehorse, Yukon Territory

1:34 AM PDT on May 27, 2017 (GMT -0700)
Whitehorse

Weather History for CYXY - April, 2014

Change the Weather History Date:

Friday, April 18, 2014

  Actual Average Record
Temperature  
Mean Temperature 39 °F -  
Max Temperature 46 °F 50 °F 57 °F (1999)
Min Temperature 32 °F 29 °F 5 °F (2008)
Degree Days  
Heating Degree Days 26    
Moisture  
Dew Point 26 °F    
Average Humidity 62    
Maximum Humidity 93    
Minimum Humidity 32    
Precipitation  
Precipitation 0.00 in 0.02 in - ()
Sea Level Pressure  
Sea Level Pressure 29.64 in    
Wind  
Wind Speed 12 mph ()    
Max Wind Speed 18 mph    
Max Gust Speed 24 mph    
Visibility 19.9 miles    
Events      
Averages and records for this station are not official NWS values.
T = Trace of Precipitation, MM = Missing Value Source: Averaged Metar Reports

Daily Weather History Graph

Daily Weather History Graph

Search for Another Location

Airport or City:

Trip Planner

Search our weather history database for the weather conditions in past years. The results will help you decide how hot, cold, wet, or windy it might be!

Date:

Astronomy

Apr. 18, 2014 Rise Set
Actual Time 6:31 AM PDT 9:29 PM PDT
Civil Twilight 5:43 AM PDT 10:18 PM PDT
Nautical Twilight 4:36 AM PDT 11:26 PM PDT
Astronomical Twilight 2:38 AM PDT 1:42 AM PDT
Moon 12:57 AM PDT (4/18) 8:21 AM PDT (4/18)
Length of Visible Light 16h 35m
Length of Day
14h 57m
Waning Gibbous, 86% of the Moon is Illuminated
Apr 18
Waning Gibbous
Apr 22
Last Quarter
Apr 28
New
May 6
First Quarter
May 14
Full

Hourly Weather History & Observations

Time (PDT) Temp. Windchill Dew Point Humidity Pressure Visibility Wind Dir Wind Speed Gust Speed Precip Events Conditions
12:00 AM 35.6 °F 27.5 °F 32.0 °F 87% 29.50 in 20.0 mi SSE 11.5 mph - N/A   Mostly Cloudy
1:00 AM 35.6 °F 27.5 °F 32.0 °F 87% 29.51 in 20.0 mi SSE 11.5 mph - N/A   Mostly Cloudy
2:00 AM 35.6 °F 26.6 °F 32.0 °F 87% 29.52 in 20.0 mi SSE 13.8 mph - N/A   Scattered Clouds
3:00 AM 33.8 °F 23.2 °F 30.2 °F 87% 29.53 in 20.0 mi South 17.3 mph - N/A   Partly Cloudy
4:00 AM 33.8 °F 23.9 °F 30.2 °F 87% 29.54 in 20.0 mi South 15.0 mph - N/A   Mostly Cloudy
5:00 AM 33 °F - 30 °F 86% 29.56 in 19 mi South 15.0 mph - -  
5:00 AM 33.8 °F 24.3 °F 30.2 °F 87% 29.56 in 20.0 mi South 13.8 mph - N/A   Mostly Cloudy
6:00 AM 32.0 °F 22.5 °F 30.2 °F 93% 29.57 in 30.0 mi South 12.7 mph - N/A   Mostly Cloudy
7:00 AM 33.8 °F 24.8 °F 30.2 °F 87% 29.58 in 40.0 mi South 12.7 mph - N/A   Mostly Cloudy
8:00 AM 33.8 °F 24.8 °F 30.2 °F 87% 29.60 in 40.0 mi South 12.7 mph - N/A   Mostly Cloudy
9:00 AM 35.6 °F 26.6 °F 30.2 °F 81% 29.62 in 40.0 mi South 13.8 mph - N/A   Mostly Cloudy
10:00 AM 37.4 °F 29.8 °F 28.4 °F 70% 29.62 in 40.0 mi SSE 11.5 mph 20.7 mph N/A   Mostly Cloudy
11:00 AM 40 °F - 29 °F 53% 29.63 in 37 mi SSE 12.7 mph - -   Overcast
11:00 AM 39.2 °F 32.5 °F 28.4 °F 65% 29.63 in 40.0 mi SSE 10.4 mph 19.6 mph N/A   Overcast
12:00 PM 41.0 °F 33.1 °F 28.4 °F 61% 29.65 in 40.0 mi SE 15.0 mph - N/A   Overcast
1:00 PM 42.8 °F 36.2 °F 26.6 °F 53% 29.66 in 40.0 mi SSE 12.7 mph 20.7 mph N/A   Mostly Cloudy
2:00 PM 44.6 °F 36.9 °F 26.6 °F 49% 29.66 in 40.0 mi SSE 18.4 mph - N/A   Mostly Cloudy
3:00 PM 44.6 °F 38.8 °F 23.0 °F 43% 29.68 in 40.0 mi South 11.5 mph 19.6 mph N/A   Mostly Cloudy
3:48 PM 44.6 °F 39.7 °F 23.0 °F 43% 29.68 in 40.0 mi SW 9.2 mph 20.7 mph N/A   Mostly Cloudy
4:00 PM 46.4 °F 39.5 °F 23.0 °F 40% 29.69 in 40.0 mi WSW 17.3 mph 24.2 mph N/A   Mostly Cloudy
5:00 PM 44 °F - 24 °F 32% 29.70 in 37 mi SW 13.8 mph - -  
5:00 PM 44.6 °F 37.8 °F 24.8 °F 46% 29.70 in 40.0 mi WSW 15.0 mph - N/A   Mostly Cloudy
6:00 PM 44.6 °F 37.2 °F 21.2 °F 39% 29.70 in 40.0 mi SSW 17.3 mph - N/A   Mostly Cloudy
7:00 PM 44.6 °F 39.2 °F 19.4 °F 37% 29.71 in 40.0 mi SSW 10.4 mph 20.7 mph N/A   Mostly Cloudy
8:00 PM 42.8 °F 36.2 °F 17.6 °F 36% 29.71 in 40.0 mi SSE 12.7 mph - N/A   Mostly Cloudy
8:43 PM 41.0 °F 37.1 °F 15.8 °F 36% 29.72 in 40.0 mi SE 5.8 mph - N/A   Scattered Clouds
9:00 PM 41.0 °F 35.8 °F 15.8 °F 36% 29.72 in 40.0 mi SSW 8.1 mph - N/A   Scattered Clouds
10:00 PM 37.4 °F 30.8 °F 17.6 °F 45% 29.73 in 40.0 mi SE 9.2 mph - N/A   Scattered Clouds
11:00 PM 34 °F - 22 °F 48% 29.75 in 37 mi South 9.2 mph - -  
11:00 PM 33.8 °F 27.0 °F 21.2 °F 60% 29.75 in 40.0 mi South 8.1 mph - N/A   Partly Cloudy